Wind_Speed
23 23 23 23 22 22 22 21 20 20 20 20 19 19 19 19 19 19 20 20 20 20 20 20 20 21 21 21 22 21 21 20 20 20 18 18 16 15 15 15 14 14 13 10 9 9 10 10 10 10 10 10 10 10 10 13 12 11 13 13 14 14 13 8 4 3 5 4 4 2 3 2 1 4 4 6 5 5 5 14 22 19 16 17 16 12 11 12
22 22 22 21 21 21 21 20 19 19 18 18 18 18 18 17 18 18 18 18 18 18 18 18 19 19 20 20 20 21 20 20 21 19 17 17 17 16 16 15 15 14 13 10 8 9 9 10 10 10 10 9 8 9 10 14 14 14 14 14 17 14 9 7 7 3 3 4 3 2 4 1 2 6 5 6 5 4 7 17 21 19 17 15 12 11 13 13
21 21 21 21 21 21 21 20 19 18 18 17 17 17 16 16 16 16 17 17 17 17 17 17 17 18 18 18 19 19 19 19 20 18 17 18 18 17 16 16 15 14 13 12 9 9 10 9 10 10 9 9 9 9 10 13 14 15 15 16 17 11 7 7 7 5 5 4 3 1 2 1 3 6 5 4 5 5 10 16 17 19 18 14 12 12 15 14
22 21 21 21 21 21 20 19 19 18 17 17 16 16 15 15 15 15 15 15 15 15 15 16 16 16 17 17 17 17 17 17 18 18 16 17 17 17 17 16 15 15 14 13 10 9 10 9 8 9 9 9 10 10 11 12 13 14 16 19 17 9 9 8 7 6 8 7 4 4 4 5 6 6 4 5 8 5 5 7 10 15 12 11 13 13 15 13
22 22 21 21 20 20 20 20 19 18 17 16 16 15 15 14 14 14 14 14 14 14 14 15 15 15 15 16 16 16 14 11 15 16 13 14 15 16 16 15 15 15 14 13 11 11 11 9 8 10 11 11 11 12 13 13 13 13 16 20 18 13 10 7 6 7 10 12 11 9 9 9 8 8 6 7 11 6 4 5 8 15 10 5 9 11 15 12
22 22 21 21 21 20 20 20 19 19 18 16 16 15 15 14 14 14 13 13 13 13 14 13 14 14 14 15 15 15 12 7 10 14 12 12 14 15 15 15 15 15 15 14 12 12 13 12 11 12 12 12 13 14 14 13 14 14 15 17 18 16 12 8 6 6 9 10 12 11 10 10 9 8 7 9 11 8 6 4 7 15 12 3 6 11 15 12
22 22 21 21 21 21 21 21 20 19 18 17 16 15 15 14 13 13 12 12 12 12 13 12 13 13 13 15 14 15 15 12 12 12 11 12 12 13 14 14 14 14 14 13 12 12 13 14 15 14 12 12 13 14 14 13 14 17 16 15 14 14 13 13 10 9 9 9 10 10 11 11 10 9 8 9 9 8 8 3 8 17 13 5 7 12 14 12
22 22 22 22 21 21 21 21 21 19 18 17 16 15 14 14 14 13 13 12 12 12 12 12 12 12 13 13 14 14 12 14 18 14 11 11 10 11 13 13 13 14 14 13 12 12 13 14 16 14 14 13 11 12 14 14 15 18 18 16 14 12 12 14 13 12 11 10 11 11 12 12 12 12 11 10 9 10 6 3 12 18 9 5 9 10 11 11
22 22 22 22 21 21 21 21 21 20 18 17 16 15 14 14 13 13 13 12 12 12 12 12 11 12 13 13 14 12 10 15 20 15 13 13 10 9 10 12 12 13 14 14 13 13 14 14 15 15 14 12 11 11 13 14 15 17 18 17 16 14 13 13 14 13 12 12 11 11 13 13 13 13 15 14 11 10 7 5 14 16 7 8 11 12 12 11
22 22 22 22 21 21 21 21 21 20 19 17 16 15 14 13 13 13 12 12 12 12 12 12 12 12 12 13 13 11 12 18 19 15 15 16 13 11 9 10 12 13 14 15 14 13 13 11 11 12 13 13 11 10 13 15 13 11 13 15 16 17 15 14 14 13 13 12 12 13 13 13 13 13 15 14 12 11 6 10 18 17 10 11 14 13 12 11
21 22 22 22 21 21 21 21 21 20 18 17 16 15 14 13 12 12 12 12 12 12 12 11 12 13 12 14 14 14 16 18 17 15 15 15 14 13 11 10 11 13 14 15 15 14 13 11 10 11 11 13 12 9 13 17 15 11 11 13 15 16 17 16 16 14 13 13 13 13 14 14 14 15 16 14 14 12 8 13 17 14 12 12 14 15 14 12
21 21 21 21 21 20 20 20 20 19 18 16 15 14 14 13 12 12 12 12 12 12 12 11 11 12 13 14 13 15 18 17 16 13 13 14 13 12 12 11 10 13 15 14 15 18 19 13 14 16 9 10 11 9 12 15 16 15 13 14 14 15 18 18 18 16 14 13 11 11 13 15 16 18 17 13 13 11 10 13 12 11 13 10 11 15 16 13
21 21 21 21 21 20 20 20 20 19 17 16 15 15 14 14 13 13 13 13 13 12 11 11 11 12 13 13 13 15 17 17 17 13 11 12 12 12 12 12 11 13 13 10 9 16 23 16 16 21 12 8 10 9 11 11 13 16 14 15 15 15 19 20 18 16 15 13 9 9 11 14 16 20 18 15 16 13 10 14 13 13 12 10 12 12 13 12
21 21 21 21 21 20 20 19 19 18 17 16 15 15 14 14 14 13 13 13 13 12 12 11 11 12 13 12 12 14 14 16 16 13 12 12 12 12 12 12 12 13 14 14 11 13 21 21 19 23 17 13 12 10 11 11 11 13 14 15 14 16 20 19 18 16 14 13 11 9 12 16 17 19 18 15 18 15 12 17 20 16 12 13 14 11 11 12
21 20 20 20 21 20 19 19 18 17 17 16 15 15 14 14 14 13 13 13 13 12 12 11 11 12 12 11 12 12 11 14 14 12 12 11 11 12 12 13 13 14 16 18 18 16 19 20 18 21 18 14 13 11 10 11 12 12 13 15 15 17 17 11 17 16 11 11 12 11 14 18 17 16 18 17 19 15 12 18 21 17 14 14 14 12 13 14
21 20 19 20 20 20 19 18 18 17 16 16 15 14 14 14 13 13 13 13 13 12 12 12 11 12 12 11 14 13 11 13 12 12 12 11 11 12 12 13 14 15 16 16 17 16 17 17 16 18 15 11 13 12 11 12 14 14 14 15 15 15 11 9 18 16 11 9 10 11 14 18 11 3 12 17 16 14 13 19 21 17 16 14 15 15 15 16
20 20 19 19 19 19 19 18 17 17 16 16 15 14 14 14 14 14 14 14 14 13 13 12 11 13 13 14 15 12 11 13 13 12 11 11 11 11 12 13 14 14 14 16 16 15 16 17 16 16 15 14 14 14 14 14 15 16 15 14 14 16 13 10 17 17 13 11 10 11 12 16 9 1 8 13 12 14 14 18 21 19 19 16 16 18 18 18
20 19 18 18 19 18 18 17 16 16 16 15 14 14 13 13 14 15 15 15 15 14 14 13 14 12 9 12 12 8 12 15 14 13 11 11 11 11 11 12 13 14 13 14 15 14 15 15 15 14 14 16 17 17 18 17 16 16 15 14 12 15 12 7 11 14 11 10 11 13 12 14 12 8 10 12 13 15 14 16 22 22 20 19 18 18 17 17
19 18 17 17 17 17 17 17 15 15 16 14 13 13 12 13 14 14 15 16 17 16 11 11 16 13 5 6 4 2 11 15 12 13 12 11 12 14 13 12 11 13 12 12 13 13 14 13 15 16 16 18 19 20 21 19 17 12 10 13 12 13 14 10 9 11 9 7 9 12 13 13 13 12 14 13 11 13 13 15 23 24 20 21 20 16 14 16
17 17 16 16 16 16 16 15 14 14 15 13 12 12 11 11 10 10 16 19 19 18 12 11 16 15 7 5 4 9 13 13 9 10 11 11 13 15 15 13 11 13 14 13 12 12 14 15 17 19 18 18 19 20 21 22 19 14 13 11 13 14 16 14 12 12 10 9 7 9 12 13 14 15 16 15 12 13 13 14 21 23 20 19 21 18 17 19
15 15 15 14 15 15 15 14 13 14 14 13 12 11 11 13 10 10 18 19 18 20 19 18 18 15 11 6 8 14 14 11 9 9 11 12 12 15 16 15 15 17 17 15 13 11 15 18 19 19 18 18 18 19 21 23 20 17 15 12 11 11 12 12 10 10 10 8 7 11 13 15 16 17 17 18 18 15 13 13 16 20 20 21 23 21 20 21
14 14 13 14 14 14 14 13 13 13 12 12 12 11 13 16 14 14 19 19 19 20 20 22 23 19 16 10 11 14 10 11 12 12 14 14 14 16 17 18 18 18 16 16 16 14 17 21 19 18 18 18 18 18 19 23 20 15 14 14 12 9 9 12 13 11 9 6 8 11 14 16 17 18 19 20 22 19 15 16 17 19 22 24 24 19 20 20
13 13 13 13 14 13 13 12 12 12 11 12 11 13 15 15 14 15 19 21 20 19 18 20 24 23 21 18 17 17 13 12 12 16 19 18 16 16 17 19 18 18 17 18 20 18 18 20 19 19 19 18 19 19 17 19 18 15 14 16 15 13 11 13 12 8 7 8 9 9 14 18 17 18 20 21 23 23 20 18 18 18 20 22 23 23 23 22
13 13 12 13 13 12 12 12 12 11 11 11 11 13 15 13 13 14 17 19 19 18 16 17 19 22 23 21 21 22 19 15 13 18 22 19 17 17 17 19 18 18 19 18 21 20 17 18 19 18 18 20 20 19 17 15 14 14 17 18 17 15 15 15 12 9 12 11 9 11 16 20 20 18 19 18 20 24 24 20 18 19 20 21 24 26 23 22
12 12 12 13 12 11 12 12 11 11 11 11 12 13 14 13 12 13 13 14 15 14 13 15 17 19 19 18 19 22 21 21 17 18 24 21 18 18 18 18 18 19 19 19 20 21 20 19 18 17 18 21 21 18 18 16 14 15 18 20 20 18 17 17 17 15 15 10 9 13 13 15 19 21 22 20 20 23 23 22 20 19 19 20 24 25 21 22
12 12 12 13 12 12 12 11 10 11 9 10 13 13 12 12 11 11 10 10 12 11 12 16 19 17 17 20 21 19 17 23 23 20 22 23 18 19 18 18 19 19 18 19 19 21 21 19 15 15 15 17 19 17 17 18 18 18 16 17 20 19 19 20 20 18 14 11 11 14 12 12 15 18 21 22 22 22 22 23 22 19 18 19 22 25 24 25
12 12 12 13 12 12 11 9 10 11 10 10 13 13 11 10 9 7 6 7 9 11 13 15 16 15 17 20 21 20 13 15 22 24 22 23 20 21 19 18 19 18 17 18 20 20 20 20 18 17 14 13 16 18 17 18 19 19 16 15 17 21 21 20 18 17 14 15 16 17 17 17 16 15 15 16 19 20 21 23 22 19 17 17 20 24 25 25
12 12 13 13 13 12 11 11 11 13 13 12 12 12 11 9 8 6 4 5 5 12 15 15 16 14 15 16 20 22 12 5 17 26 25 23 21 22 22 21 18 18 17 18 21 18 17 20 19 18 18 17 17 17 16 18 19 18 17 14 15 17 16 14 15 17 16 17 19 20 19 16 15 16 16 16 17 17 18 19 18 18 17 17 21 24 23 23
12 13 13 14 13 13 13 12 13 15 13 10 10 11 11 9 8 7 3 4 7 13 13 14 16 14 13 14 18 22 15 7 12 19 23 23 21 22 23 21 19 18 19 20 21 17 16 18 18 17 18 18 18 17 17 18 19 18 16 13 12 13 12 11 13 16 17 17 19 19 19 15 12 15 16 15 16 15 17 19 16 15 15 13 15 18 17 18
13 13 14 14 14 13 13 12 14 15 12 11 12 11 11 10 10 8 3 4 8 11 12 14 15 14 15 16 17 20 18 13 9 11 20 24 21 21 20 19 19 20 20 21 21 20 16 14 16 18 19 17 16 16 17 18 17 16 15 13 12 12 14 15 15 16 14 13 18 20 19 16 11 13 13 12 16 15 11 14 14 13 12 10 7 12 15 16
14 14 14 14 14 13 13 14 16 17 16 14 14 11 11 12 11 8 4 5 9 11 12 14 14 14 17 17 17 20 19 15 11 13 21 23 21 22 20 18 20 20 20 22 22 22 19 15 15 18 19 17 16 16 16 15 14 15 14 11 10 11 14 16 17 16 10 10 17 19 19 19 14 12 8 8 13 16 9 8 13 17 17 15 10 13 16 18
15 15 14 14 15 14 15 14 13 16 16 15 14 13 12 10 10 12 7 3 7 12 12 12 14 16 18 17 17 19 19 16 15 16 21 23 22 24 24 21 21 20 20 21 21 21 23 21 17 16 18 18 16 16 16 15 16 16 15 14 11 9 10 11 11 11 10 12 17 18 17 17 11 5 6 8 7 13 14 12 16 20 21 19 15 17 18 22
15 14 14 15 15 15 15 13 11 13 16 15 16 16 12 8 9 15 14 7 5 8 10 13 15 14 17 16 16 19 18 16 18 18 20 22 21 23 26 24 22 20 18 19 20 21 20 21 22 20 18 20 20 19 18 18 19 19 18 17 14 9 6 6 6 7 9 13 16 18 17 12 6 7 8 7 7 10 14 18 20 22 21 17 16 20 23 24
14 13 14 15 14 14 13 13 13 15 16 17 18 16 12 10 10 13 15 11 8 8 6 12 13 11 14 15 15 17 17 16 18 19 19 21 22 22 25 26 24 22 19 18 19 21 18 17 23 23 18 18 23 24 20 17 18 20 18 18 17 14 9 7 6 6 8 10 11 13 13 9 5 7 5 7 10 12 14 17 20 20 17 16 18 22 23 22
13 13 13 12 12 13 13 14 15 16 18 20 20 15 13 13 11 12 11 6 6 8 8 10 10 10 13 15 15 16 17 16 18 20 19 21 22 21 23 26 26 24 22 19 17 19 19 16 18 21 19 18 21 24 22 18 18 19 18 20 21 20 16 11 9 9 9 7 8 9 5 2 2 6 5 8 9 12 15 14 17 18 16 15 16 17 17 17
11 11 10 10 11 12 14 16 17 17 19 21 19 14 16 15 9 6 5 1 2 7 8 9 12 13 14 15 15 16 18 16 16 20 20 20 22 22 21 23 25 26 24 20 15 15 17 16 16 18 20 20 20 21 22 21 18 16 18 22 20 18 18 15 13 14 12 6 7 10 4 2 3 4 5 8 7 10 13 12 13 14 13 12 11 11 12 13
9 9 9 9 10 12 15 17 18 18 21 21 17 15 15 14 9 4 3 3 1 5 5 7 11 13 13 15 15 16 17 14 14 18 19 19 20 21 21 20 22 27 27 22 17 15 14 14 15 17 19 20 19 19 21 23 20 16 16 18 17 17 19 16 10 9 10 6 7 12 10 6 6 4 5 8 9 10 13 11 10 9 8 9 9 11 11 11
8 9 9 9 9 12 15 18 19 19 22 20 15 17 14 11 9 6 5 4 1 5 7 10 9 11 13 14 14 16 17 16 15 17 18 18 17 18 21 20 20 23 26 24 20 15 12 12 14 17 19 18 19 19 20 22 23 20 16 14 14 15 15 15 11 6 7 6 4 11 12 3 3 3 5 8 7 7 10 9 7 5 4 4 7 10 11 11
11 10 9 10 9 11 15 18 19 20 22 19 14 14 14 10 6 6 7 6 5 4 7 11 9 9 12 11 10 13 16 15 14 14 16 16 15 15 17 18 19 20 23 25 23 15 11 11 12 14 17 17 19 22 21 21 22 22 20 16 15 14 12 13 14 11 10 6 4 10 8 3 4 3 5 7 7 7 9 7 6 4 3 2 4 7 9 10
14 10 8 10 10 11 15 18 20 22 23 19 14 11 11 9 7 7 7 7 8 6 8 9 7 7 9 8 9 10 12 12 12 14 15 12 12 13 12 12 16 19 19 23 24 19 14 13 12 12 15 18 19 21 21 19 20 22 23 22 18 15 14 11 10 12 12 6 4 6 3 3 4 4 4 6 7 7 6 5 6 6 5 5 5 6 7 9
13 9 9 11 11 12 16 19 22 23 20 16 14 12 11 9 5 4 6 8 10 9 8 7 5 5 6 7 9 8 9 10 11 12 13 11 10 11 12 11 11 13 17 20 23 22 18 16 14 13 15 19 19 19 20 20 20 21 24 24 21 18 17 11 6 10 14 11 7 2 1 2 4 3 4 6 6 6 7 7 9 9 9 8 7 7 8 7
13 9 9 11 11 13 16 17 19 20 17 14 12 9 11 13 8 3 4 6 8 9 7 8 8 7 5 6 7 6 8 11 10 10 11 11 10 10 13 15 9 7 12 18 21 20 18 15 14 15 16 17 16 16 18 20 20 21 22 23 23 20 19 15 7 8 13 13 9 2 2 6 6 4 4 6 7 7 9 10 12 12 11 12 10 9 8 6
11 8 10 11 12 14 16 15 14 15 15 13 11 8 8 10 10 7 4 5 7 8 7 7 8 8 7 7 7 7 8 8 7 8 8 8 9 10 13 16 13 7 8 14 16 16 17 15 14 15 15 16 16 14 14 17 20 23 23 22 23 22 21 20 13 6 8 8 5 3 0 5 7 8 7 7 9 9 11 12 14 14 14 15 14 12 10 6
9 10 13 13 13 16 17 14 12 14 15 12 11 10 8 6 7 7 5 5 7 7 7 6 7 8 8 7 7 8 7 6 6 7 7 5 6 8 12 13 14 11 10 12 12 11 14 15 15 13 11 12 15 13 13 17 19 20 20 20 22 22 20 17 11 6 6 6 5 3 2 6 8 9 7 8 10 11 13 13 13 15 14 14 15 14 11 6
9 10 14 14 14 16 15 13 11 11 12 12 10 10 9 7 8 9 7 6 6 6 6 6 6 7 7 6 7 8 9 8 7 7 7 6 5 7 11 11 13 17 14 10 11 12 12 14 15 13 9 7 7 7 9 13 14 13 14 17 20 20 17 11 7 5 4 6 8 7 4 9 7 6 5 6 8 11 15 16 15 14 13 11 12 12 8 5
9 11 14 14 14 15 11 9 10 8 7 10 9 9 10 8 7 9 10 8 6 6 6 6 5 6 6 7 7 8 9 10 10 9 8 7 6 7 8 9 12 18 14 9 12 15 15 14 11 10 8 5 6 5 5 8 12 11 10 13 14 16 16 11 6 5 4 4 5 3 6 10 8 7 6 4 5 8 13 14 13 12 10 8 8 7 5 5
11 12 14 14 13 12 10 8 8 5 4 7 8 7 10 9 6 7 9 8 7 7 7 6 6 6 5 6 7 8 8 9 10 10 9 7 7 8 8 10 9 11 12 12 13 15 16 15 10 9 8 7 7 6 4 6 8 10 13 16 14 12 12 8 3 2 3 2 2 2 8 10 9 10 9 7 7 9 11 10 8 9 8 7 7 6 5 5
11 10 13 13 9 8 8 7 8 8 7 7 7 6 7 7 7 6 6 7 5 5 5 5 6 6 6 6 6 7 7 8 8 8 7 5 4 5 8 10 7 5 9 11 11 13 15 14 13 14 14 12 10 8 6 7 6 6 11 15 13 8 7 5 4 4 4 2 2 5 9 11 11 10 10 10 8 8 10 9 8 9 7 7 7 7 6 7
10 8 8 8 6 5 7 6 7 8 7 6 6 6 5 5 7 6 5 5 5 4 4 4 5 6 6 5 5 6 7 7 6 5 5 5 3 2 4 7 4 3 5 4 5 11 13 11 13 16 17 18 18 14 9 7 7 8 11 12 9 4 2 3 6 9 8 2 7 9 9 10 11 12 11 10 8 7 9 9 9 9 8 8 8 7 8 8
9 9 7 5 4 4 8 8 6 5 5 6 5 4 4 4 5 6 5 5 5 5 5 5 5 6 6 6 5 5 6 6 5 3 3 4 5 5 4 4 3 2 4 4 4 7 10 10 9 10 11 14 17 16 13 9 9 11 11 9 7 4 0 2 2 7 7 5 10 13 14 14 14 14 12 10 9 9 9 9 9 8 8 9 8 8 9 9
9 9 9 8 3 2 4 6 5 5 4 5 5 4 5 5 5 5 5 4 5 5 5 5 6 6 6 7 6 4 4 4 4 3 3 3 2 4 4 2 1 1 2 5 5 5 8 9 7 6 9 9 10 13 14 12 11 10 9 8 5 2 2 4 2 3 6 10 14 15 16 17 17 15 14 13 12 10 10 10 10 8 9 10 10 9 9 7
10 8 9 10 4 1 3 4 4 4 4 5 6 4 4 4 3 4 5 4 4 4 4 4 5 5 5 7 7 6 7 7 5 4 3 3 3 5 5 3 3 3 3 4 5 4 6 7 6 7 9 7 6 9 11 12 11 7 8 10 7 4 4 7 6 6 10 15 16 14 14 16 15 14 14 13 11 11 12 13 11 8 9 10 8 8 7 6
Wind_Direction
257 256 255 254 253 252 251 249 248 248 248 248 248 249 250 251 251 252 252 252 253 253 253 253 253 253 253 253 254 254 254 253 251 246 242 240 236 236 240 236 234 231 231 236 238 232 220 214 205 204 198 196 200 185 201 218 212 220 232 238 238 239 239 258 311 176 153 77 66 54 25 102 253 321 322 316 277 261 266 232 245 260 259 260 257 247 242 243
255 255 254 253 252 251 249 247 246 245 245 244 245 246 247 248 249 249 250 251 251 252 252 253 253 253 253 253 254 254 253 253 250 246 241 240 237 236 237 234 233 228 227 231 234 227 215 210 199 199 195 190 209 200 204 218 214 215 224 235 236 239 248 284 314 215 175 21 38 25 10 164 264 315 306 315 300 279 255 235 247 261 258 263 258 236 232 234
255 255 253 253 252 251 248 246 245 243 242 242 242 243 244 245 246 246 246 248 248 249 250 250 251 252 253 252 253 253 253 252 252 248 242 240 238 236 235 232 231 226 223 223 224 219 209 201 193 193 184 184 212 214 210 217 220 218 221 233 234 243 287 292 290 258 244 319 350 338 1 353 297 305 300 309 303 284 263 257 263 263 256 256 255 241 233 228
254 254 253 253 253 251 249 247 246 244 242 241 240 240 241 242 243 243 243 244 245 246 247 247 248 249 250 250 251 251 251 256 256 248 240 239 237 234 232 230 229 224 220 220 219 214 202 188 188 188 179 194 211 210 211 215 219 219 225 233 231 254 310 287 265 272 259 269 284 271 299 316 302 290 297 291 281 283 290 290 274 271 271 253 254 244 227 226
254 253 253 253 253 252 250 248 247 245 243 241 240 239 239 240 241 241 241 241 241 242 244 244 245 245 246 247 247 248 248 258 259 245 236 239 235 233 231 227 225 220 217 218 213 207 191 174 194 199 190 206 215 213 217 218 222 225 232 239 243 266 296 283 264 271 265 265 269 274 282 290 292 283 284 272 270 290 331 344 309 294 300 244 238 230 218 221
255 254 252 252 252 252 251 250 248 246 244 241 241 240 239 239 238 239 239 239 239 239 241 241 242 241 242 244 242 243 232 219 248 243 235 239 236 234 230 223 220 216 215 214 210 203 182 173 202 211 202 213 219 221 224 223 226 232 240 244 252 263 263 268 286 273 272 276 267 266 267 271 283 277 272 263 260 286 294 305 305 283 283 262 213 208 206 210
256 255 254 253 252 252 252 251 250 247 244 241 240 239 238 239 237 238 237 238 238 237 239 238 240 239 238 241 239 239 227 216 238 243 237 240 238 234 228 222 216 214 213 211 212 200 177 177 202 211 211 221 225 227 229 228 228 233 243 247 252 260 252 256 271 266 273 281 265 257 256 262 270 264 267 261 246 275 297 281 254 257 267 273 215 200 194 192
257 256 255 254 252 253 253 253 252 249 246 243 241 240 238 238 237 238 237 238 238 236 238 236 238 237 236 238 236 237 235 236 240 236 237 239 235 234 227 221 213 210 207 207 210 192 177 189 204 209 213 221 228 233 231 231 233 235 242 247 250 258 255 254 261 266 271 272 265 259 257 258 259 256 257 255 244 259 280 263 259 261 257 215 206 195 184 174
257 257 256 255 253 254 254 254 254 251 248 245 242 241 238 237 236 237 237 236 238 237 236 235 236 237 234 234 233 231 234 243 241 232 234 233 226 230 226 218 210 205 200 199 202 187 180 195 204 205 212 226 241 244 234 230 234 236 240 245 249 255 258 259 259 263 265 263 263 261 260 257 254 253 251 252 247 246 244 230 252 257 239 204 202 186 172 163
257 258 257 256 254 254 255 255 255 253 250 246 243 241 236 235 233 233 235 235 237 237 236 234 234 235 232 231 227 219 227 240 240 231 231 231 226 227 226 216 206 200 196 193 191 183 179 188 202 211 228 243 251 248 230 227 235 240 241 244 250 254 255 256 256 259 258 257 258 257 259 256 250 248 249 251 238 228 231 232 237 244 239 212 202 188 169 162
257 257 257 257 255 254 255 255 255 253 249 247 244 240 236 233 231 232 233 233 233 234 235 232 232 234 232 232 224 217 229 239 239 230 226 232 230 227 224 215 204 196 194 189 182 181 186 196 212 219 238 241 238 250 238 231 240 249 251 252 254 254 253 252 251 252 251 255 255 255 260 255 247 243 245 245 230 217 217 235 239 247 251 223 207 196 180 176
256 255 257 257 255 254 254 254 253 251 248 247 245 243 239 234 232 231 231 232 232 231 232 230 232 234 232 234 229 223 231 238 244 240 228 231 229 225 221 212 205 198 192 186 185 185 184 199 215 203 214 232 224 250 249 236 240 246 252 256 259 258 256 249 244 245 246 253 252 249 255 252 243 238 241 234 218 212 219 241 244 244 259 243 201 187 184 189
255 255 255 256 255 252 251 251 250 249 248 248 248 247 242 238 234 231 231 231 231 230 229 231 231 235 236 237 234 230 233 238 248 252 240 233 226 223 219 209 203 198 185 177 204 196 180 189 208 197 202 227 219 245 247 233 238 243 247 254 261 261 255 246 237 234 235 242 238 233 249 256 246 235 240 239 220 213 219 233 234 233 247 232 197 186 190 195
255 254 254 254 253 250 249 248 247 248 249 249 249 248 243 240 235 231 231 231 231 230 229 232 233 238 238 238 242 238 235 239 243 247 245 237 227 220 215 211 203 195 185 177 203 211 189 193 204 198 194 200 218 255 253 239 239 238 241 246 250 255 257 245 223 216 226 231 220 228 254 265 260 240 238 235 215 210 219 233 241 244 239 218 205 199 203 200
255 252 251 250 250 248 247 246 245 247 248 248 248 246 243 239 237 234 232 231 232 230 231 234 236 243 243 240 249 245 236 242 242 240 240 237 230 219 209 211 204 198 198 191 195 207 202 201 203 197 191 196 222 251 253 238 234 230 235 236 233 245 261 234 195 199 220 222 212 228 251 260 269 256 233 212 201 204 216 236 245 251 245 222 208 202 206 204
254 250 248 247 248 247 246 245 244 246 247 246 245 243 242 239 237 235 232 232 232 232 235 237 239 247 249 244 245 243 241 246 242 235 232 230 225 215 207 209 208 206 205 204 204 209 206 199 198 197 200 218 227 235 242 234 226 218 225 239 232 233 246 194 183 198 211 203 205 220 243 260 284 280 197 185 192 207 222 239 242 244 250 233 211 205 204 204
252 248 245 244 245 244 245 244 243 245 244 242 240 241 240 238 238 236 235 234 233 236 236 239 248 250 252 251 251 255 252 244 240 234 226 222 213 205 213 210 208 214 208 210 214 212 207 201 200 201 207 221 223 227 234 231 224 213 217 241 246 239 236 196 184 196 204 205 214 219 240 263 276 104 174 185 204 218 223 242 247 249 253 242 221 212 205 204
250 246 243 242 242 242 243 242 242 243 242 240 238 238 239 239 239 236 238 238 236 238 239 244 247 247 269 265 258 276 260 242 236 233 226 220 196 185 219 220 205 212 210 213 218 211 211 208 205 211 214 216 218 221 224 227 220 207 208 221 249 258 247 209 175 179 186 202 224 232 242 258 259 245 220 206 213 224 226 241 254 258 256 250 233 214 199 197
247 245 241 240 240 240 240 239 239 240 240 239 237 237 239 241 242 243 243 241 239 236 240 256 245 234 281 288 237 227 243 239 234 226 222 220 196 180 209 223 204 206 207 212 218 207 207 209 205 215 219 216 218 217 221 229 222 225 236 224 237 252 240 232 196 174 181 201 225 238 242 251 253 242 226 213 210 218 221 237 252 253 251 254 247 227 210 207
244 243 240 238 238 238 237 237 236 237 238 236 236 235 237 239 246 259 251 242 243 239 233 250 247 228 233 276 217 195 217 227 229 224 218 215 202 187 198 207 195 201 205 206 216 205 201 210 211 214 217 216 220 219 227 234 237 273 298 261 241 236 235 233 197 181 193 206 233 250 250 253 252 247 239 236 231 217 214 231 251 255 253 256 257 248 230 223
240 238 237 235 236 235 235 235 233 235 235 234 235 232 234 234 226 247 252 247 248 246 234 235 243 227 212 233 222 213 220 224 215 213 219 212 196 192 196 196 193 203 206 201 209 206 203 216 218 218 219 220 224 223 233 243 249 276 284 264 255 240 246 251 224 210 188 181 241 259 260 258 252 252 249 249 245 230 218 226 247 259 263 265 264 253 230 227
236 233 232 231 232 233 234 235 233 234 234 233 234 228 236 240 234 244 255 257 254 251 245 234 232 226 214 209 209 210 214 219 207 196 211 211 194 194 198 198 199 206 208 202 207 203 207 222 223 220 222 223 229 227 234 246 250 265 262 248 255 249 249 257 251 237 193 191 251 257 262 260 253 252 249 249 249 243 237 237 243 249 257 264 261 244 231 238
235 230 228 227 229 231 231 233 234 233 232 233 234 232 239 246 248 251 256 261 258 253 253 239 229 224 217 210 213 213 196 200 205 195 206 212 198 191 195 202 204 208 210 205 208 207 209 225 223 220 224 225 231 228 230 245 243 245 246 238 243 249 253 254 247 236 235 260 264 259 269 264 258 255 248 245 246 249 250 245 240 236 244 254 253 246 244 252
233 228 228 228 228 229 229 231 230 230 232 233 234 237 245 249 250 252 255 262 262 250 244 241 233 226 219 213 221 229 217 209 209 202 214 216 195 190 194 205 209 211 215 209 211 216 218 230 222 211 220 224 227 226 224 238 240 232 233 236 241 244 249 253 255 252 251 262 263 259 269 264 257 255 252 247 243 247 250 247 241 240 244 243 245 252 254 256
230 227 228 229 228 228 229 228 226 227 228 230 234 236 244 248 246 250 254 263 268 251 229 227 226 222 220 212 217 230 228 223 209 202 227 227 195 194 201 207 213 214 217 213 215 222 228 239 228 208 216 221 221 222 219 225 238 238 232 234 241 250 257 261 269 265 244 243 252 242 248 258 253 248 248 246 242 246 248 245 241 243 246 241 240 245 244 248
229 227 230 232 229 230 231 229 228 226 223 233 237 234 239 242 240 245 247 257 265 241 208 210 217 215 207 205 211 216 223 231 215 197 227 234 200 194 206 208 214 218 217 215 220 224 228 239 232 217 220 214 212 220 219 220 232 239 236 231 234 246 258 260 271 278 260 260 266 247 248 266 259 248 246 243 241 243 243 240 238 239 242 244 243 237 233 241
230 229 233 234 231 233 231 226 225 216 210 228 234 228 230 231 231 232 226 252 250 211 192 198 213 216 202 206 213 202 201 233 219 199 212 230 211 197 209 212 211 218 216 217 225 222 224 233 225 219 222 211 210 221 221 219 227 235 236 235 233 235 239 244 258 270 268 269 270 261 261 271 268 259 259 258 247 240 241 236 229 234 242 246 247 243 244 249
231 232 236 236 235 235 228 221 219 215 216 225 228 220 217 217 214 191 188 252 206 174 186 192 202 210 197 206 209 196 193 209 207 201 200 220 220 200 210 217 210 218 215 217 228 220 219 231 221 213 221 222 221 224 223 219 225 233 234 240 249 247 243 243 251 256 258 261 263 258 253 259 262 257 261 267 258 244 244 242 229 233 244 245 248 249 250 247
234 235 238 238 237 235 228 222 219 223 226 223 218 209 206 202 184 171 203 257 171 162 185 194 199 198 182 195 201 196 206 200 200 204 194 208 218 199 208 220 214 221 218 219 231 223 217 226 221 213 219 226 227 226 226 221 223 232 236 241 248 251 254 255 253 256 255 252 254 252 250 256 257 252 256 261 261 251 244 248 244 238 240 237 247 247 234 233
236 237 238 238 237 235 231 223 217 221 221 212 210 202 197 185 170 184 215 208 186 174 184 198 202 193 179 189 196 195 208 210 202 200 189 201 211 199 207 221 220 228 224 220 228 229 223 221 219 220 222 227 230 226 225 224 222 226 235 244 238 233 242 249 251 255 259 254 251 250 250 256 259 259 255 245 252 254 242 237 224 212 210 200 238 261 246 246
238 239 239 237 236 231 226 221 215 215 210 204 204 191 185 181 180 207 200 188 208 180 174 198 198 188 187 190 196 196 203 211 203 190 187 195 202 201 207 215 217 228 228 219 220 227 231 224 216 220 223 225 228 227 222 219 218 218 225 235 236 230 230 235 240 240 245 254 253 252 247 244 253 263 235 190 229 237 222 213 201 199 205 203 231 267 261 259
239 240 238 235 230 226 224 223 219 217 207 197 194 182 175 185 207 226 223 219 209 178 180 196 182 186 194 195 202 196 195 207 202 191 190 192 196 201 206 207 206 213 221 217 212 220 229 229 219 217 224 224 222 224 219 212 212 214 218 219 226 238 230 226 230 227 233 247 250 254 253 245 246 241 166 149 206 219 209 222 223 223 234 240 249 255 254 258
239 237 234 231 226 223 221 215 208 207 200 190 185 175 173 201 225 221 222 224 178 171 201 194 174 185 196 199 209 197 192 205 199 192 196 197 201 205 207 209 206 207 216 215 211 213 219 225 224 218 220 222 220 219 215 212 210 210 213 214 217 231 235 224 225 232 244 249 251 251 253 249 208 132 135 163 196 207 211 228 235 237 246 245 237 244 256 263
236 232 229 227 223 220 213 204 196 192 190 186 178 172 187 227 231 216 222 223 172 150 188 185 174 190 199 207 217 199 195 206 199 197 202 201 205 208 209 212 211 211 219 222 219 217 215 220 223 219 214 215 217 217 218 216 211 210 215 221 223 227 238 243 227 230 249 264 274 263 253 253 207 145 149 195 200 212 223 232 237 239 239 231 231 247 261 264
230 227 225 221 214 207 197 195 192 187 186 180 172 178 206 225 228 225 230 227 169 169 193 198 196 210 213 218 227 211 202 207 199 198 204 204 207 210 209 211 212 210 216 225 225 222 224 225 223 221 217 215 216 217 221 225 220 214 216 226 230 229 235 249 252 260 281 295 281 263 263 327 108 134 185 214 211 225 231 235 246 250 250 246 246 255 262 258
225 219 212 206 203 196 189 189 186 184 183 175 176 203 219 217 221 233 231 219 141 174 188 202 208 220 221 216 223 214 202 204 201 200 209 211 212 213 210 210 211 210 212 218 220 219 226 232 227 220 219 219 220 219 220 225 229 220 215 223 230 231 235 244 255 262 276 294 259 244 236 104 123 133 184 206 214 235 242 247 259 263 257 249 245 248 253 252
214 205 195 187 189 187 184 184 181 182 180 175 189 217 222 223 228 246 293 311 222 172 192 220 213 218 223 215 214 205 195 199 203 208 215 213 213 215 212 211 210 210 213 218 222 218 222 238 234 221 220 220 220 223 221 223 231 228 223 227 226 228 234 240 247 247 244 249 250 244 232 187 187 198 206 220 227 241 249 252 256 256 246 243 241 236 240 248
186 190 188 174 177 181 178 180 180 179 177 181 208 223 221 235 237 237 281 296 190 180 226 249 237 221 224 221 213 202 199 203 204 213 217 211 213 212 209 214 212 208 212 218 226 225 220 239 238 223 223 221 216 221 223 222 226 229 231 232 225 224 227 227 228 237 241 241 245 246 243 191 125 161 199 232 240 242 248 242 229 230 232 248 256 243 239 250
169 176 180 172 178 179 175 179 179 177 180 190 219 225 217 238 253 251 266 246 197 194 233 251 264 242 227 234 231 208 206 208 202 214 221 214 215 208 203 213 213 208 211 212 220 225 216 233 245 227 219 216 213 216 221 220 219 224 230 232 235 237 232 224 221 228 242 246 245 247 245 103 101 165 191 224 239 246 248 229 201 207 208 208 252 252 238 236
162 165 175 178 184 179 173 177 179 179 184 194 216 225 220 240 256 255 260 237 215 229 245 252 275 250 219 240 254 215 204 212 208 219 227 222 224 222 216 220 216 212 211 211 216 219 210 218 243 239 215 213 215 212 218 222 213 214 223 228 231 231 232 238 234 229 239 253 257 250 246 109 136 167 175 204 224 233 235 211 190 196 201 210 236 248 238 232
165 175 179 178 177 172 173 177 180 183 187 198 217 230 230 231 238 252 256 237 218 222 240 247 262 262 233 249 256 217 206 225 222 223 229 228 234 236 230 230 228 222 216 214 217 216 208 206 223 236 221 217 223 217 219 228 222 215 219 222 226 226 226 233 232 225 234 249 259 264 32 132 166 157 166 194 209 205 196 198 204 209 213 223 233 234 238 240
172 183 171 169 169 165 169 176 181 185 194 210 219 232 238 229 226 261 269 242 221 216 235 246 253 273 274 262 264 245 236 241 230 224 232 234 233 230 224 217 217 232 223 218 220 218 213 210 218 233 231 225 231 225 220 229 232 229 224 222 226 230 229 233 235 214 222 243 259 252 120 145 168 207 224 221 227 200 180 193 212 222 224 225 226 223 233 252
178 173 156 159 162 159 162 171 185 192 201 216 216 220 245 238 230 243 246 229 218 212 227 243 247 258 263 259 265 260 256 260 249 237 235 227 221 228 230 213 203 225 235 225 225 218 212 216 222 232 239 237 238 237 234 236 236 234 229 225 227 231 232 238 244 214 206 236 264 281 206 142 180 231 239 246 249 216 193 198 209 223 226 220 219 218 226 240
181 163 157 160 163 166 165 166 187 204 208 220 224 222 237 235 214 220 228 220 215 212 224 239 238 241 246 253 260 249 247 267 265 248 244 250 248 243 238 224 215 225 231 227 225 207 200 210 219 227 237 232 231 240 248 243 238 236 233 227 229 233 232 235 233 202 200 213 200 242 264 153 191 231 228 242 248 218 210 215 214 228 235 221 216 219 224 222
189 164 161 165 172 179 175 166 178 197 208 220 225 221 227 229 212 213 218 212 212 218 226 233 233 236 238 246 259 251 244 250 254 252 256 265 271 244 226 225 229 229 231 235 228 213 205 209 216 226 231 224 229 245 249 242 237 236 235 232 234 237 237 239 234 208 213 219 217 230 179 144 178 231 219 234 243 209 208 220 224 235 244 236 227 227 227 221
183 167 164 168 182 189 184 176 176 179 204 220 221 216 220 227 226 223 218 208 215 226 226 234 240 241 246 249 258 259 251 249 244 247 258 255 262 256 219 203 223 228 228 230 220 214 214 216 226 242 250 284 299 272 259 253 242 242 259 264 257 247 242 246 249 231 232 260 261 230 157 156 189 212 193 206 232 209 206 216 226 233 239 245 244 238 228 218
176 167 165 169 184 192 191 193 189 188 214 213 210 214 219 223 226 226 219 211 224 235 231 241 243 238 250 252 257 265 263 258 246 242 253 249 256 271 238 210 222 223 216 220 218 212 213 217 234 252 255 290 299 267 288 300 260 253 272 280 279 261 245 246 259 226 217 260 312 173 157 160 176 189 198 213 213 205 202 204 218 232 234 234 234 230 220 206
179 163 163 165 172 190 200 209 210 217 223 212 214 219 216 216 213 212 211 206 217 230 222 232 238 237 246 248 256 265 262 265 257 244 256 257 244 259 239 232 244 214 205 217 213 209 216 222 235 245 246 253 257 254 284 303 287 266 268 275 280 269 250 254 255 237 225 183 174 188 161 144 160 194 232 253 237 203 195 196 208 222 226 225 225 223 216 204
171 141 152 156 145 173 189 184 192 205 212 214 225 224 210 209 209 205 200 197 211 225 218 234 243 235 238 244 260 265 252 256 261 246 265 290 298 289 231 234 251 209 209 231 206 209 222 233 247 254 252 254 256 256 255 263 273 271 267 272 270 248 254 283 255 247 252 185 150 179 182 167 182 210 236 263 261 218 202 208 214 216 219 222 222 219 218 215
158 115 128 145 125 181 187 173 174 189 201 206 206 204 198 200 208 210 203 206 228 231 219 241 260 248 244 247 258 268 250 240 245 257 291 303 304 309 289 266 281 234 226 264 261 231 228 235 252 264 263 265 265 257 245 251 266 261 255 254 243 227 314 8 251 242 238 179 160 180 198 204 209 216 223 240 249 231 218 220 221 221 225 225 223 225 232 236
161 123 142 161 164 234 182 177 190 186 190 201 195 200 201 192 202 212 201 209 244 243 224 240 263 259 249 243 246 269 272 244 233 258 300 304 291 299 298 279 279 287 263 264 263 248 237 241 255 269 268 274 275 260 252 256 259 246 229 224 218 194 116 106 132 192 167 158 170 184 196 207 216 221 221 227 233 228 222 224 223 219 225 231 227 223 228 233
170 143 146 150 153 208 162 169 195 182 189 196 185 191 191 172 197 223 207 196 216 236 238 240 248 251 252 253 247 234 231 237 234 228 250 274 270 270 272 247 221 249 277 269 257 245 236 241 249 256 261 269 278 274 266 257 253 233 202 206 197 163 143 127 129 165 162 159 170 183 201 218 225 229 231 232 229 218 211 224 232 217 216 233 232 218 218 212
Height
3085 3086 3086 3087 3087 3087 3087 3088 3088 3088 3088 3089 3089 3090 3090 3091 3092 3092 3093 3094 3094 3095 3096 3096 3097 3097 3097 3098 3098 3098 3099 3099 3099 3100 3101 3102 3103 3105 3106 3107 3109 3110 3111 3112 3113 3114 3115 3116 3117 3118 3119 3120 3121 3122 3125 3126 3127 3129 3129 3129 3128 3126 3126 3126 3124 3123 3124 3124 3124 3124 3124 3126 3128 3127 3128 3128 3127 3129 3129 3125 3122 3125 3127 3127 3127 3127 3127 3126
3083 3084 3085 3085 3085 3086 3086 3086 3086 3086 3086 3087 3087 3088 3088 3089 3090 3091 3091 3092 3092 3093 3094 3094 3095 3095 3095 3096 3096 3096 3097 3097 3097 3098 3100 3101 3102 3103 3104 3106 3107 3109 3110 3111 3112 3113 3114 3115 3116 3118 3118 3120 3121 3122 3124 3125 3126 3127 3128 3127 3125 3124 3125 3124 3123 3124 3124 3123 3124 3125 3125 3126 3127 3127 3128 3127 3128 3129 3128 3122 3121 3124 3126 3126 3126 3126 3126 3126
3081 3082 3083 3083 3084 3084 3084 3084 3084 3084 3084 3085 3085 3086 3087 3088 3088 3089 3090 3090 3091 3092 3092 3093 3093 3093 3094 3094 3094 3095 3095 3095 3095 3096 3098 3099 3100 3101 3103 3104 3106 3107 3109 3110 3111 3112 3113 3114 3115 3117 3118 3120 3122 3123 3124 3125 3125 3125 3126 3125 3123 3123 3125 3124 3123 3124 3123 3122 3124 3125 3125 3126 3127 3127 3127 3128 3128 3129 3127 3122 3120 3122 3124 3125 3125 3126 3126 3126
3079 3080 3081 3081 3082 3082 3082 3082 3082 3082 3083 3083 3084 3084 3085 3086 3087 3087 3088 3089 3089 3090 3091 3091 3092 3092 3092 3092 3093 3093 3093 3094 3093 3094 3096 3097 3098 3100 3101 3103 3104 3106 3107 3108 3110 3111 3112 3113 3115 3116 3118 3120 3122 3123 3124 3124 3124 3124 3124 3122 3122 3123 3124 3123 3123 3122 3121 3122 3123 3124 3125 3125 3127 3126 3126 3128 3128 3129 3127 3123 3120 3120 3122 3124 3124 3125 3125 3125
3078 3078 3079 3079 3080 3080 3081 3081 3081 3081 3081 3081 3082 3083 3083 3084 3085 3086 3087 3087 3088 3088 3089 3089 3090 3090 3091 3091 3091 3091 3093 3093 3091 3092 3095 3095 3097 3098 3100 3101 3103 3104 3106 3107 3108 3109 3111 3113 3115 3116 3118 3120 3122 3123 3123 3123 3123 3123 3123 3121 3121 3122 3124 3123 3122 3121 3120 3120 3121 3123 3124 3125 3125 3125 3127 3128 3127 3128 3126 3123 3120 3119 3121 3122 3123 3124 3124 3125
3076 3076 3077 3077 3078 3079 3079 3079 3079 3079 3079 3080 3081 3081 3082 3082 3083 3084 3085 3086 3086 3087 3087 3088 3088 3089 3089 3089 3090 3090 3092 3091 3089 3091 3094 3094 3095 3096 3098 3100 3101 3103 3104 3106 3107 3108 3109 3112 3115 3116 3117 3119 3121 3122 3122 3123 3123 3122 3122 3121 3121 3121 3123 3122 3121 3121 3120 3120 3121 3123 3124 3124 3124 3124 3126 3126 3126 3127 3125 3124 3121 3118 3120 3122 3123 3125 3125 3125
3074 3074 3075 3075 3076 3076 3077 3077 3077 3078 3078 3079 3079 3080 3080 3081 3082 3083 3083 3084 3084 3085 3085 3086 3087 3088 3088 3088 3089 3089 3090 3089 3088 3091 3092 3093 3094 3095 3097 3098 3100 3101 3103 3105 3106 3107 3108 3111 3114 3116 3117 3118 3119 3121 3121 3122 3122 3121 3121 3120 3121 3121 3121 3121 3121 3120 3119 3120 3121 3122 3122 3123 3124 3124 3126 3125 3126 3126 3123 3124 3122 3117 3120 3122 3123 3124 3125 3126
3071 3072 3073 3073 3074 3074 3075 3075 3076 3076 3077 3077 3078 3079 3079 3080 3080 3081 3082 3082 3083 3083 3084 3084 3085 3086 3086 3087 3087 3087 3089 3088 3087 3090 3091 3092 3093 3094 3096 3097 3099 3100 3102 3104 3105 3106 3108 3111 3113 3115 3117 3118 3119 3120 3120 3121 3120 3120 3120 3120 3120 3120 3120 3120 3120 3119 3119 3120 3120 3121 3121 3122 3123 3123 3124 3124 3125 3125 3123 3123 3120 3118 3121 3122 3123 3124 3124 3125
3069 3070 3071 3071 3072 3072 3073 3074 3074 3075 3075 3076 3077 3077 3078 3078 3079 3080 3080 3081 3081 3082 3082 3083 3084 3084 3085 3085 3086 3087 3087 3085 3085 3089 3090 3091 3092 3093 3095 3096 3097 3099 3101 3102 3104 3105 3107 3110 3112 3114 3115 3117 3118 3119 3119 3119 3119 3118 3119 3119 3119 3119 3119 3119 3119 3119 3119 3119 3119 3120 3120 3121 3122 3122 3122 3122 3123 3123 3122 3123 3119 3118 3121 3122 3122 3123 3124 3125
3067 3068 3069 3069 3070 3070 3071 3072 3073 3073 3074 3074 3075 3076 3076 3077 3078 3078 3079 3079 3080 3080 3080 3081 3082 3083 3083 3084 3084 3086 3085 3084 3084 3087 3088 3089 3091 3093 3094 3095 3096 3098 3099 3101 3103 3104 3107 3110 3112 3114 3115 3116 3116 3117 3117 3117 3117 3117 3118 3118 3118 3118 3118 3118 3118 3118 3118 3118 3119 3119 3119 3120 3120 3121 3120 3120 3121 3121 3121 3121 3118 3118 3121 3122 3122 3123 3124 3124
3065 3066 3067 3068 3068 3068 3069 3070 3071 3072 3072 3073 3074 3074 3075 3075 3076 3077 3077 3078 3078 3079 3079 3079 3080 3081 3082 3082 3083 3084 3083 3083 3084 3085 3087 3088 3090 3092 3093 3095 3096 3097 3098 3100 3102 3104 3107 3110 3112 3114 3115 3114 3115 3116 3116 3115 3116 3116 3117 3117 3116 3116 3116 3116 3116 3117 3117 3117 3117 3117 3118 3118 3118 3119 3118 3118 3120 3120 3121 3119 3117 3118 3119 3121 3123 3124 3124 3123
3063 3064 3065 3066 3066 3066 3067 3068 3069 3070 3071 3072 3072 3073 3073 3074 3075 3075 3076 3076 3077 3077 3077 3078 3079 3080 3080 3080 3082 3082 3082 3083 3083 3084 3086 3087 3089 3091 3092 3094 3095 3096 3098 3099 3101 3103 3105 3108 3109 3111 3112 3112 3114 3115 3114 3114 3115 3115 3116 3115 3115 3115 3114 3114 3114 3115 3115 3115 3116 3116 3116 3116 3116 3117 3116 3117 3118 3118 3120 3118 3117 3118 3118 3120 3123 3123 3123 3124
3061 3062 3063 3064 3064 3064 3065 3066 3067 3069 3069 3070 3071 3071 3072 3073 3073 3074 3074 3075 3075 3076 3076 3077 3078 3078 3079 3079 3080 3081 3081 3082 3083 3084 3085 3086 3088 3089 3091 3093 3094 3096 3097 3099 3101 3102 3103 3105 3106 3107 3109 3110 3112 3113 3112 3113 3114 3114 3114 3114 3114 3113 3111 3110 3112 3113 3114 3114 3115 3115 3115 3114 3113 3114 3113 3114 3116 3117 3118 3117 3115 3117 3118 3120 3121 3121 3123 3124
3059 3060 3061 3062 3062 3062 3063 3064 3066 3067 3068 3069 3069 3070 3071 3071 3072 3072 3073 3074 3074 3075 3075 3076 3077 3077 3078 3079 3079 3079 3081 3081 3082 3083 3084 3085 3086 3088 3090 3091 3093 3095 3096 3098 3100 3101 3102 3103 3104 3105 3106 3108 3110 3111 3111 3112 3113 3112 3113 3113 3112 3111 3107 3107 3109 3111 3112 3113 3114 3114 3114 3112 3110 3111 3111 3113 3114 3116 3117 3115 3113 3115 3118 3120 3120 3121 3122 3122
3057 3058 3059 3060 3061 3061 3061 3063 3064 3065 3066 3067 3068 3068 3069 3070 3070 3071 3072 3073 3073 3074 3074 3074 3075 3076 3077 3078 3078 3078 3080 3080 3081 3082 3083 3084 3086 3087 3088 3090 3092 3094 3095 3096 3098 3099 3100 3101 3103 3104 3105 3107 3108 3110 3111 3111 3111 3111 3111 3110 3110 3108 3105 3104 3107 3110 3111 3112 3113 3114 3113 3110 3108 3108 3108 3111 3113 3115 3117 3114 3112 3114 3115 3118 3120 3121 3121 3122
3055 3056 3057 3058 3059 3059 3060 3061 3062 3064 3065 3065 3066 3067 3067 3068 3069 3070 3071 3071 3072 3072 3073 3073 3074 3075 3076 3076 3076 3077 3078 3079 3080 3081 3082 3083 3085 3086 3087 3089 3091 3093 3094 3096 3097 3098 3100 3101 3102 3104 3105 3107 3108 3109 3110 3109 3109 3109 3109 3107 3106 3106 3104 3104 3105 3107 3109 3110 3111 3112 3111 3109 3108 3107 3107 3110 3113 3115 3117 3114 3111 3113 3114 3115 3119 3120 3120 3121
3053 3054 3055 3056 3057 3058 3059 3060 3061 3062 3063 3064 3064 3065 3066 3067 3067 3068 3069 3070 3071 3071 3072 3072 3073 3074 3074 3074 3075 3076 3077 3078 3078 3079 3081 3082 3083 3085 3086 3088 3090 3091 3093 3095 3096 3097 3099 3100 3102 3103 3104 3106 3107 3108 3108 3107 3106 3106 3106 3106 3104 3103 3102 3102 3103 3105 3107 3109 3110 3111 3110 3109 3109 3110 3110 3111 3113 3115 3116 3113 3110 3113 3113 3113 3116 3119 3120 3121
3051 3052 3053 3054 3055 3056 3057 3058 3059 3061 3061 3062 3063 3064 3065 3065 3066 3067 3068 3068 3069 3070 3071 3071 3072 3073 3074 3073 3074 3076 3075 3075 3077 3078 3079 3081 3082 3084 3085 3087 3089 3090 3092 3093 3095 3096 3098 3099 3101 3102 3103 3104 3105 3106 3105 3103 3102 3102 3103 3104 3103 3101 3100 3100 3101 3103 3106 3108 3109 3110 3110 3109 3109 3110 3110 3110 3112 3113 3115 3113 3110 3111 3112 3112 3114 3117 3118 3120
3049 3051 3052 3053 3054 3055 3056 3057 3058 3059 3060 3061 3061 3062 3063 3064 3065 3065 3066 3066 3067 3068 3070 3070 3069 3071 3073 3072 3074 3076 3074 3074 3076 3077 3078 3080 3081 3084 3085 3086 3088 3089 3091 3092 3094 3095 3097 3098 3099 3100 3101 3102 3102 3103 3102 3101 3100 3100 3100 3100 3101 3101 3100 3101 3101 3101 3105 3107 3108 3109 3109 3109 3109 3110 3110 3109 3110 3111 3114 3114 3109 3109 3111 3111 3112 3115 3116 3118
3047 3049 3050 3051 3052 3053 3054 3055 3056 3057 3058 3059 3060 3061 3062 3062 3063 3064 3063 3063 3065 3067 3069 3067 3067 3070 3072 3073 3075 3074 3073 3073 3075 3076 3077 3079 3080 3083 3085 3085 3088 3089 3090 3092 3093 3094 3096 3097 3097 3098 3099 3100 3101 3102 3101 3100 3099 3100 3099 3098 3098 3099 3098 3099 3099 3099 3102 3105 3108 3108 3108 3109 3108 3109 3109 3109 3109 3108 3110 3112 3109 3108 3109 3110 3110 3113 3115 3116
3046 3047 3048 3049 3050 3051 3053 3054 3055 3055 3057 3058 3058 3060 3060 3060 3062 3061 3060 3061 3063 3064 3066 3066 3066 3068 3071 3074 3075 3072 3072 3074 3075 3075 3076 3078 3079 3081 3083 3085 3087 3088 3089 3091 3093 3094 3095 3095 3095 3096 3098 3099 3100 3101 3100 3098 3100 3100 3100 3098 3097 3097 3098 3099 3099 3098 3099 3102 3107 3108 3108 3108 3108 3108 3108 3108 3108 3107 3108 3109 3109 3107 3108 3109 3109 3111 3113 3114
3044 3045 3047 3048 3049 3050 3051 3052 3053 3054 3055 3056 3057 3058 3057 3058 3060 3060 3059 3060 3061 3061 3063 3064 3064 3066 3069 3073 3073 3071 3072 3074 3074 3076 3075 3076 3078 3080 3082 3083 3086 3087 3088 3091 3092 3093 3093 3093 3094 3095 3097 3098 3098 3099 3099 3098 3099 3100 3099 3099 3098 3098 3099 3099 3099 3099 3099 3100 3104 3107 3106 3106 3106 3106 3106 3106 3106 3106 3106 3107 3108 3108 3107 3107 3106 3107 3109 3111
3042 3044 3045 3046 3047 3049 3050 3051 3052 3053 3053 3054 3055 3056 3055 3057 3058 3059 3058 3057 3058 3059 3060 3060 3061 3063 3066 3069 3070 3069 3071 3073 3074 3075 3074 3075 3078 3079 3082 3083 3084 3087 3087 3089 3090 3090 3091 3090 3091 3094 3095 3097 3097 3097 3098 3097 3097 3099 3099 3099 3098 3099 3099 3099 3098 3099 3099 3100 3103 3105 3105 3104 3104 3104 3104 3105 3104 3105 3105 3105 3106 3108 3108 3107 3104 3105 3108 3110
3041 3042 3044 3044 3046 3047 3048 3049 3050 3051 3052 3053 3054 3054 3054 3056 3057 3057 3057 3056 3056 3056 3057 3058 3059 3061 3063 3066 3068 3067 3069 3072 3074 3075 3072 3073 3077 3079 3081 3083 3084 3085 3086 3087 3088 3088 3089 3088 3088 3091 3093 3095 3095 3095 3096 3096 3096 3097 3098 3098 3098 3099 3099 3098 3098 3098 3099 3100 3102 3104 3104 3102 3101 3102 3101 3103 3103 3103 3103 3103 3104 3105 3107 3108 3105 3103 3105 3107
3039 3041 3042 3043 3044 3046 3047 3048 3049 3049 3050 3051 3052 3053 3053 3055 3055 3056 3056 3056 3055 3054 3055 3056 3058 3059 3061 3064 3066 3066 3068 3069 3071 3074 3070 3072 3077 3078 3080 3082 3082 3084 3084 3086 3087 3087 3087 3086 3087 3089 3090 3092 3093 3093 3095 3096 3096 3096 3096 3097 3098 3098 3098 3098 3098 3097 3096 3096 3100 3102 3101 3099 3099 3100 3099 3100 3101 3100 3101 3102 3102 3104 3105 3107 3106 3103 3102 3103
3038 3039 3040 3041 3043 3044 3045 3046 3047 3048 3049 3050 3050 3051 3053 3053 3055 3055 3056 3056 3054 3053 3054 3055 3055 3057 3059 3062 3062 3064 3067 3066 3067 3072 3070 3070 3075 3078 3079 3081 3080 3082 3083 3085 3085 3085 3085 3085 3087 3088 3088 3089 3091 3092 3093 3095 3095 3094 3094 3095 3097 3098 3098 3097 3097 3097 3094 3095 3098 3099 3098 3095 3095 3096 3095 3096 3097 3097 3099 3099 3100 3102 3104 3105 3104 3102 3101 3101
3036 3038 3039 3040 3041 3042 3044 3045 3046 3047 3048 3048 3049 3050 3052 3052 3054 3055 3056 3056 3053 3050 3051 3053 3054 3055 3057 3059 3060 3062 3065 3063 3064 3068 3069 3068 3072 3076 3077 3078 3079 3080 3082 3084 3082 3082 3083 3084 3085 3087 3088 3089 3090 3091 3092 3093 3093 3093 3093 3094 3095 3095 3095 3095 3097 3097 3096 3097 3097 3097 3096 3094 3092 3093 3094 3094 3093 3094 3095 3096 3097 3100 3102 3104 3103 3100 3100 3101
3035 3036 3037 3038 3039 3041 3042 3044 3045 3045 3046 3047 3048 3050 3051 3052 3054 3054 3056 3056 3050 3048 3050 3051 3052 3054 3056 3058 3058 3060 3061 3061 3062 3064 3067 3068 3069 3074 3074 3075 3078 3078 3080 3081 3079 3079 3081 3082 3083 3086 3087 3088 3088 3089 3090 3092 3092 3091 3092 3093 3093 3092 3092 3094 3096 3096 3097 3097 3094 3094 3096 3093 3090 3092 3093 3093 3092 3092 3093 3095 3096 3098 3100 3102 3101 3099 3099 3100
3034 3035 3035 3036 3037 3039 3040 3042 3043 3044 3045 3046 3047 3049 3050 3052 3053 3054 3056 3054 3047 3046 3049 3049 3051 3053 3055 3056 3057 3058 3060 3062 3062 3062 3065 3067 3067 3071 3073 3073 3076 3077 3078 3079 3078 3078 3079 3080 3082 3084 3086 3086 3087 3088 3089 3090 3090 3090 3092 3092 3093 3093 3093 3095 3096 3095 3096 3094 3090 3091 3094 3090 3087 3089 3091 3091 3091 3091 3093 3094 3095 3097 3100 3101 3099 3097 3098 3098
3032 3033 3034 3035 3036 3037 3039 3041 3042 3043 3045 3046 3047 3048 3050 3051 3052 3054 3056 3051 3045 3045 3047 3048 3051 3052 3054 3055 3056 3057 3059 3061 3062 3061 3064 3066 3066 3069 3071 3073 3075 3075 3076 3077 3077 3077 3078 3079 3080 3082 3083 3085 3085 3086 3087 3088 3089 3090 3091 3091 3092 3093 3095 3095 3095 3095 3094 3090 3087 3089 3092 3090 3087 3086 3089 3089 3089 3091 3093 3093 3094 3095 3096 3098 3097 3094 3096 3097
3030 3031 3032 3033 3034 3036 3038 3039 3040 3041 3043 3045 3046 3048 3050 3051 3052 3053 3051 3047 3044 3044 3045 3047 3050 3051 3052 3054 3055 3056 3058 3059 3061 3061 3062 3064 3066 3067 3069 3071 3072 3073 3073 3074 3075 3076 3077 3077 3078 3079 3082 3083 3084 3084 3085 3086 3087 3089 3090 3091 3091 3092 3093 3093 3092 3094 3092 3087 3086 3087 3088 3088 3086 3085 3087 3086 3087 3090 3092 3092 3092 3093 3092 3094 3096 3094 3094 3096
3028 3029 3031 3032 3033 3035 3036 3038 3039 3040 3042 3044 3046 3047 3049 3051 3051 3049 3046 3044 3043 3043 3045 3046 3048 3050 3051 3052 3053 3054 3056 3058 3059 3060 3061 3062 3064 3065 3066 3067 3069 3070 3070 3071 3073 3074 3075 3075 3076 3078 3080 3081 3082 3082 3083 3085 3086 3087 3089 3090 3091 3090 3089 3089 3088 3089 3087 3084 3085 3086 3085 3084 3084 3085 3085 3085 3088 3090 3091 3091 3091 3092 3092 3094 3096 3093 3093 3093
3027 3028 3029 3030 3032 3033 3035 3037 3038 3040 3041 3043 3045 3046 3049 3050 3048 3045 3044 3044 3042 3041 3043 3045 3046 3048 3050 3051 3051 3052 3054 3056 3057 3058 3060 3061 3062 3063 3064 3066 3067 3068 3068 3069 3070 3071 3072 3074 3074 3076 3077 3078 3079 3080 3080 3081 3083 3085 3086 3087 3088 3088 3087 3087 3085 3085 3084 3082 3083 3085 3084 3082 3083 3084 3084 3086 3089 3089 3090 3090 3090 3090 3091 3094 3095 3092 3092 3092
3026 3027 3028 3029 3031 3032 3034 3036 3037 3039 3040 3042 3044 3046 3048 3048 3044 3043 3043 3043 3041 3041 3043 3044 3045 3048 3049 3049 3049 3050 3052 3054 3055 3057 3058 3059 3060 3061 3062 3064 3066 3067 3068 3068 3068 3067 3068 3069 3070 3072 3073 3075 3076 3077 3078 3079 3080 3082 3084 3085 3085 3084 3085 3084 3082 3083 3082 3081 3081 3083 3082 3081 3081 3084 3085 3087 3087 3087 3088 3089 3088 3089 3089 3092 3093 3091 3090 3090
3024 3025 3026 3028 3029 3031 3033 3035 3036 3037 3039 3041 3043 3045 3046 3044 3042 3042 3042 3041 3041 3042 3044 3045 3046 3047 3048 3048 3048 3048 3050 3051 3053 3055 3056 3057 3057 3058 3060 3061 3063 3065 3066 3066 3065 3065 3065 3066 3068 3070 3071 3073 3074 3075 3077 3078 3078 3079 3082 3083 3081 3081 3082 3081 3080 3081 3082 3082 3081 3082 3082 3081 3081 3083 3085 3086 3086 3086 3086 3087 3087 3088 3088 3089 3090 3089 3089 3088
3023 3024 3025 3027 3028 3030 3032 3033 3035 3037 3038 3040 3042 3043 3043 3042 3042 3041 3041 3041 3041 3042 3043 3045 3046 3046 3046 3046 3046 3046 3048 3049 3051 3053 3053 3054 3055 3056 3057 3058 3060 3062 3063 3064 3064 3064 3065 3065 3067 3068 3069 3071 3072 3074 3076 3076 3075 3075 3078 3078 3079 3081 3081 3079 3079 3080 3082 3083 3081 3081 3081 3081 3082 3083 3084 3084 3085 3085 3085 3086 3086 3086 3087 3087 3087 3087 3086 3085
3022 3023 3024 3026 3027 3029 3031 3032 3034 3036 3037 3039 3040 3040 3041 3041 3042 3041 3041 3041 3041 3042 3043 3044 3044 3044 3043 3043 3044 3045 3046 3048 3050 3051 3051 3052 3053 3053 3055 3056 3058 3060 3061 3062 3063 3063 3064 3065 3066 3067 3067 3069 3071 3072 3074 3074 3074 3074 3075 3076 3078 3079 3079 3078 3079 3079 3081 3081 3079 3078 3079 3080 3082 3083 3083 3083 3084 3085 3084 3085 3086 3085 3085 3086 3086 3086 3085 3084
3021 3023 3024 3025 3027 3029 3030 3032 3033 3035 3037 3039 3039 3039 3039 3040 3041 3041 3041 3040 3041 3043 3044 3043 3042 3043 3042 3041 3041 3043 3045 3046 3048 3049 3049 3050 3050 3051 3053 3055 3056 3057 3059 3061 3062 3062 3064 3064 3064 3065 3065 3067 3070 3071 3071 3072 3073 3074 3074 3075 3076 3076 3076 3076 3077 3078 3079 3078 3077 3076 3077 3080 3083 3083 3084 3083 3083 3083 3083 3084 3085 3085 3085 3085 3085 3086 3085 3085
3021 3022 3023 3024 3026 3028 3029 3031 3033 3035 3036 3037 3038 3038 3038 3038 3040 3040 3039 3040 3041 3042 3043 3043 3042 3042 3041 3041 3041 3042 3044 3045 3048 3049 3048 3048 3048 3048 3051 3053 3054 3055 3058 3060 3060 3062 3063 3063 3063 3063 3064 3066 3067 3067 3067 3069 3071 3073 3074 3074 3074 3073 3074 3074 3074 3075 3076 3076 3076 3076 3076 3081 3084 3083 3084 3083 3082 3082 3082 3083 3085 3085 3085 3085 3084 3085 3085 3085
3020 3022 3023 3024 3026 3027 3029 3031 3032 3034 3035 3036 3037 3038 3039 3039 3040 3039 3039 3040 3041 3042 3043 3043 3043 3042 3042 3042 3042 3042 3044 3045 3048 3049 3048 3048 3049 3049 3050 3052 3053 3054 3056 3058 3059 3060 3062 3063 3063 3062 3062 3063 3064 3064 3066 3067 3068 3070 3071 3071 3072 3072 3073 3073 3072 3073 3074 3074 3074 3075 3077 3082 3084 3083 3083 3083 3082 3083 3082 3083 3085 3085 3084 3084 3084 3083 3084 3085
3020 3022 3023 3024 3025 3027 3028 3030 3031 3033 3034 3036 3037 3038 3038 3039 3039 3039 3038 3039 3040 3041 3042 3042 3043 3043 3043 3044 3043 3043 3044 3046 3047 3048 3049 3049 3049 3049 3049 3050 3052 3053 3055 3056 3057 3058 3060 3061 3062 3062 3061 3061 3061 3063 3065 3066 3066 3068 3068 3069 3070 3070 3071 3071 3071 3072 3074 3073 3074 3075 3078 3082 3084 3083 3083 3082 3082 3083 3083 3084 3084 3084 3083 3083 3083 3084 3084 3085
3020 3021 3022 3023 3025 3027 3028 3030 3031 3033 3035 3036 3037 3037 3036 3037 3039 3039 3039 3039 3040 3041 3042 3042 3042 3043 3043 3044 3044 3043 3045 3045 3046 3047 3048 3048 3048 3049 3049 3049 3051 3053 3054 3054 3055 3057 3059 3060 3061 3061 3060 3060 3061 3062 3063 3064 3065 3066 3066 3067 3068 3068 3069 3069 3069 3071 3073 3073 3074 3075 3078 3082 3083 3083 3083 3082 3081 3083 3084 3083 3083 3082 3082 3082 3083 3084 3085 3086
3019 3020 3022 3023 3025 3027 3028 3030 3033 3033 3034 3035 3036 3037 3036 3037 3039 3039 3039 3039 3040 3041 3042 3043 3043 3043 3044 3044 3044 3045 3045 3045 3045 3046 3047 3047 3048 3049 3049 3050 3051 3053 3054 3054 3055 3056 3058 3059 3060 3060 3060 3060 3060 3061 3062 3063 3064 3063 3063 3065 3067 3067 3067 3068 3068 3069 3071 3072 3074 3075 3077 3080 3081 3082 3083 3083 3082 3083 3083 3082 3082 3081 3081 3082 3083 3084 3085 3086
3018 3019 3021 3023 3025 3026 3027 3030 3032 3033 3034 3035 3035 3036 3036 3037 3037 3038 3039 3040 3040 3041 3042 3042 3043 3044 3044 3044 3044 3045 3046 3046 3046 3046 3047 3047 3047 3048 3049 3051 3052 3051 3051 3053 3053 3054 3056 3057 3059 3059 3059 3059 3059 3060 3061 3062 3061 3061 3062 3064 3065 3065 3066 3066 3067 3068 3069 3071 3074 3075 3078 3079 3079 3081 3083 3083 3082 3082 3083 3083 3082 3081 3081 3081 3083 3084 3085 3086
3018 3019 3021 3023 3025 3026 3027 3028 3030 3032 3033 3034 3034 3035 3036 3036 3036 3037 3038 3039 3040 3041 3041 3042 3042 3043 3043 3044 3044 3045 3046 3046 3046 3047 3046 3046 3047 3047 3048 3050 3051 3049 3050 3052 3053 3054 3055 3056 3058 3058 3057 3058 3058 3058 3060 3061 3060 3060 3062 3064 3065 3064 3064 3064 3066 3067 3068 3070 3072 3074 3077 3078 3078 3079 3082 3082 3081 3081 3082 3083 3082 3082 3081 3081 3082 3084 3084 3084
3018 3019 3020 3022 3024 3026 3027 3028 3029 3030 3032 3033 3033 3034 3035 3035 3036 3036 3036 3038 3039 3040 3041 3041 3042 3042 3043 3043 3044 3044 3045 3045 3046 3046 3046 3045 3046 3047 3046 3047 3048 3048 3050 3052 3053 3053 3054 3055 3057 3057 3057 3058 3058 3059 3060 3060 3060 3061 3062 3062 3063 3063 3063 3064 3066 3067 3068 3070 3073 3073 3074 3076 3077 3079 3081 3081 3080 3080 3080 3082 3082 3081 3082 3082 3082 3083 3083 3083
3017 3018 3020 3022 3024 3025 3026 3027 3029 3030 3031 3032 3032 3033 3034 3035 3036 3036 3036 3037 3039 3039 3040 3040 3041 3042 3042 3042 3043 3043 3043 3044 3044 3045 3046 3045 3045 3046 3046 3046 3046 3047 3050 3051 3050 3052 3053 3054 3055 3056 3057 3059 3059 3060 3061 3061 3061 3061 3061 3061 3062 3062 3062 3064 3066 3067 3067 3070 3074 3075 3074 3075 3077 3079 3079 3079 3078 3078 3079 3080 3081 3081 3081 3082 3082 3083 3083 3083
3017 3018 3019 3022 3024 3025 3026 3027 3029 3030 3031 3031 3032 3032 3033 3034 3035 3036 3035 3037 3038 3038 3038 3039 3040 3041 3042 3042 3042 3042 3043 3043 3043 3045 3045 3044 3043 3044 3045 3046 3047 3049 3049 3048 3049 3050 3052 3053 3054 3054 3055 3057 3059 3061 3062 3062 3062 3062 3062 3062 3062 3061 3062 3064 3064 3065 3067 3069 3073 3076 3076 3075 3077 3078 3077 3077 3077 3077 3078 3079 3079 3080 3080 3081 3082 3083 3083 3083
3017 3017 3019 3022 3024 3025 3026 3027 3028 3029 3030 3030 3031 3031 3032 3033 3034 3035 3036 3036 3037 3038 3038 3039 3039 3040 3041 3042 3042 3042 3042 3042 3042 3043 3043 3042 3042 3044 3045 3046 3047 3049 3049 3047 3048 3051 3052 3053 3053 3054 3054 3056 3057 3059 3061 3062 3063 3062 3062 3062 3062 3062 3063 3064 3064 3065 3067 3069 3072 3075 3075 3075 3075 3075 3075 3076 3076 3077 3077 3078 3078 3079 3080 3080 3081 3082 3082 3083
3017 3017 3019 3023 3025 3025 3025 3026 3028 3029 3029 3030 3030 3031 3032 3033 3034 3035 3036 3036 3036 3037 3038 3039 3039 3040 3041 3041 3041 3041 3041 3041 3041 3042 3043 3043 3043 3044 3045 3046 3047 3048 3048 3048 3048 3050 3052 3052 3053 3054 3054 3055 3056 3057 3059 3061 3062 3062 3061 3060 3061 3062 3063 3064 3065 3065 3066 3068 3071 3074 3074 3074 3074 3074 3074 3075 3075 3076 3076 3077 3078 3079 3079 3079 3080 3081 3081 3082
3017 3018 3020 3023 3025 3025 3025 3026 3027 3028 3029 3029 3030 3031 3031 3032 3033 3034 3035 3036 3036 3037 3038 3038 3039 3039 3039 3040 3041 3041 3040 3040 3041 3043 3043 3044 3044 3045 3045 3046 3047 3047 3048 3048 3049 3050 3051 3052 3053 3054 3054 3054 3055 3056 3058 3060 3062 3061 3061 3061 3061 3063 3065 3065 3066 3066 3067 3069 3071 3073 3074 3073 3073 3073 3073 3073 3074 3075 3075 3076 3077 3078 3079 3079 3079 3080 3080 3081
3017 3018 3020 3023 3025 3025 3026 3027 3028 3028 3029 3029 3030 3030 3031 3032 3033 3034 3034 3035 3036 3037 3038 3038 3038 3038 3039 3039 3040 3040 3040 3039 3040 3041 3042 3043 3045 3046 3045 3045 3046 3047 3048 3048 3048 3049 3050 3051 3052 3053 3053 3053 3054 3055 3057 3059 3061 3061 3060 3060 3063 3064 3065 3066 3066 3067 3068 3068 3070 3072 3072 3072 3072 3072 3072 3072 3073 3074 3075 3075 3076 3077 3078 3079 3079 3080 3080 3081